• Em Portugal
  • Lista de países
  • Para 7 dias
  • Temperatura da água
  • Mapas de satélite
  • Mapa do tempo
  • Widgets de tempo
  • user-avatar
    Iniciar Sessão

    Previsão horária em Cisow

    Hoje, 26 Setembro, Quarta-feira

    Tempo Temperatura Precipitação Vento Pressão Humidade
    00:00 +4°C° 0 mm 2 m/s 741 mmHg 74%
    01:00 +4°C° 0 mm 1 m/s 741 mmHg 72%
    02:00 +3°C° 0 mm 2 m/s 741 mmHg 73%
    03:00 +3°C° 0 mm 2 m/s 741 mmHg 73%
    04:00 +3°C° 0 mm 2 m/s 741 mmHg 74%
    05:00 +4°C° 0 mm 2 m/s 741 mmHg 72%
    06:00 +4°C° 0 mm 2 m/s 741 mmHg 71%
    07:00 +5°C° 0 mm 2 m/s 741 mmHg 70%
    08:00 +7°C° 0 mm 3 m/s 741 mmHg 62%
    09:00 +8°C° 0 mm 3 m/s 741 mmHg 55%
    10:00 +10°C° 0 mm 4 m/s 740 mmHg 47%
    11:00 +11°C° 0 mm 4 m/s 740 mmHg 45%
    12:00 +12°C° 0 mm 4 m/s 739 mmHg 44%
    13:00 +12°C° 0 mm 4 m/s 739 mmHg 42%
    14:00 +13°C° 0 mm 4 m/s 738 mmHg 43%
    15:00 +13°C° 0 mm 4 m/s 738 mmHg 43%
    16:00 +13°C° 0 mm 4 m/s 737 mmHg 44%
    17:00 +12°C° 0 mm 4 m/s 737 mmHg 47%
    18:00 +11°C° 0 mm 4 m/s 737 mmHg 49%
    19:00 +10°C° 0 mm 4 m/s 737 mmHg 52%
    20:00 +10°C° 0 mm 4 m/s 737 mmHg 53%
    21:00 +8°C° 0 mm 4 m/s 736 mmHg 53%
    22:00 +8°C° 0 mm 4 m/s 736 mmHg 54%
    23:00 +8°C° 0 mm 4 m/s 736 mmHg 54%

    Amanhã, 27 Setembro, Quinta-feira

    Tempo Temperatura Precipitação Vento Pressão Humidade
    00:00 +10°C° 0 mm 4 m/s 736 mmHg 54%
    01:00 +10°C° 0 mm 4 m/s 736 mmHg 54%
    02:00 +10°C° 0 mm 4 m/s 736 mmHg 55%
    03:00 +8°C° 0 mm 4 m/s 736 mmHg 56%
    04:00 +9°C° 0 mm 3 m/s 736 mmHg 57%
    05:00 +10°C° 0 mm 3 m/s 736 mmHg 59%
    06:00 +10°C° 0 mm 3 m/s 736 mmHg 61%
    07:00 +10°C° 0 mm 3 m/s 736 mmHg 62%
    08:00 +12°C° 0 mm 3 m/s 736 mmHg 61%
    09:00 +14°C° 0 mm 4 m/s 736 mmHg 59%
    10:00 +17°C° 0 mm 4 m/s 736 mmHg 58%
    11:00 +18°C° 0 mm 4 m/s 736 mmHg 57%
    12:00 +19°C° 0 mm 4 m/s 736 mmHg 57%
    13:00 +20°C° 0 mm 3 m/s 735 mmHg 56%
    14:00 +20°C° 0 mm 3 m/s 735 mmHg 57%
    15:00 +20°C° 0 mm 3 m/s 734 mmHg 58%
    16:00 +20°C° 0 mm 3 m/s 734 mmHg 59%
    17:00 +19°C° 0 mm 3 m/s 733 mmHg 64%
    18:00 +17°C° 0 mm 3 m/s 733 mmHg 69%
    19:00 +15°C° 0 mm 2 m/s 732 mmHg 74%
    20:00 +14°C° 0 mm 3 m/s 732 mmHg 73%
    21:00 +13°C° 0 mm 3 m/s 732 mmHg 73%
    22:00 +13°C° 0 mm 3 m/s 731 mmHg 73%
    23:00 +13°C° 0 mm 3 m/s 731 mmHg 73%

    Depois de amanhã, 28 Setembro, Sexta-feira

    Tempo Temperatura Precipitação Vento Pressão Humidade
    00:00 +13°C° 0 mm 3 m/s 730 mmHg 74%
    01:00 +12°C° 0 mm 3 m/s 730 mmHg 74%
    02:00 +12°C° 0 mm 3 m/s 729 mmHg 74%
    03:00 +11°C° 0 mm 3 m/s 729 mmHg 74%
    04:00 +11°C° 0 mm 3 m/s 728 mmHg 73%
    05:00 +10°C° 0 mm 3 m/s 728 mmHg 72%
    06:00 +10°C° 0 mm 3 m/s 729 mmHg 71%
    07:00 +10°C° 0 mm 3 m/s 729 mmHg 70%
    08:00 +12°C° 0 mm 3 m/s 729 mmHg 67%
    09:00 +13°C° 0 mm 3 m/s 729 mmHg 63%
    10:00 +15°C° 0 mm 4 m/s 730 mmHg 59%
    11:00 +15°C° 0 mm 4 m/s 729 mmHg 61%
    12:00 +15°C° 0 mm 4 m/s 729 mmHg 63%
    13:00 +15°C° 0 mm 4 m/s 729 mmHg 65%
    14:00 +14°C° 0 mm 4 m/s 729 mmHg 65%
    15:00 +14°C° 0 mm 4 m/s 729 mmHg 66%
    16:00 +13°C° 0 mm 4 m/s 729 mmHg 66%
    17:00 +12°C° 0 mm 4 m/s 729 mmHg 67%
    18:00 +11°C° 0 mm 3 m/s 730 mmHg 68%
    19:00 +10°C° 0 mm 2 m/s 730 mmHg 70%
    20:00 +9°C° 0 mm 2 m/s 730 mmHg 70%
    21:00 +8°C° 0 mm 2 m/s 730 mmHg 70%
    22:00 +8°C° 0 mm 2 m/s 731 mmHg 71%
    23:00 +8°C° 0 mm 2 m/s 731 mmHg 72%

    29 Setembro, Sábado

    Tempo Temperatura Precipitação Vento Pressão Humidade
    00:00 +8°C° 0 mm 2 m/s 731 mmHg 73%
    01:00 +7°C° 0 mm 2 m/s 731 mmHg 73%
    02:00 +7°C° 0 mm 2 m/s 732 mmHg 77%
    03:00 +6°C° 0 mm 2 m/s 732 mmHg 80%
    04:00 +5°C° 0 mm 2 m/s 732 mmHg 84%
    05:00 +4°C° 0 mm 3 m/s 732 mmHg 81%
    06:00 +4°C° 0 mm 3 m/s 733 mmHg 79%
    07:00 +4°C° 0 mm 3 m/s 733 mmHg 76%
    08:00 +5°C° 0 mm 3 m/s 734 mmHg 70%
    09:00 +8°C° 0 mm 3 m/s 734 mmHg 63%
    10:00 +10°C° 0 mm 3 m/s 734 mmHg 57%
    11:00 +10°C° 0 mm 3 m/s 734 mmHg 53%
    12:00 +11°C° 0 mm 3 m/s 734 mmHg 50%
    13:00 +12°C° 0 mm 3 m/s 734 mmHg 46%
    14:00 +12°C° 0 mm 3 m/s 734 mmHg 47%
    15:00 +11°C° 0 mm 3 m/s 734 mmHg 47%
    16:00 +12°C° 0 mm 2 m/s 734 mmHg 48%
    17:00 +10°C° 0 mm 2 m/s 734 mmHg 53%
    18:00 +9°C° 0 mm 1 m/s 735 mmHg 59%
    19:00 +8°C° 0 mm 1 m/s 735 mmHg 65%
    20:00 +7°C° 0 mm 1 m/s 735 mmHg 66%
    21:00 +7°C° 0 mm 1 m/s 735 mmHg 67%
    22:00 +7°C° 0 mm 1 m/s 735 mmHg 68%
    23:00 +6°C° 0 mm 1 m/s 735 mmHg 69%

    30 Setembro, Domingo

    Tempo Temperatura Precipitação Vento Pressão Humidade
    00:00 +6°C° 0 mm 1 m/s 735 mmHg 70%
    01:00 +6°C° 0 mm 1 m/s 735 mmHg 71%
    02:00 +5°C° 0 mm 1 m/s 734 mmHg 71%
    03:00 +5°C° 0 mm 1 m/s 734 mmHg 71%
    04:00 +5°C° 0 mm 1 m/s 734 mmHg 71%
    05:00 +5°C° 0 mm 1 m/s 734 mmHg 70%
    06:00 +6°C° 0 mm 1 m/s 734 mmHg 68%
    07:00 +6°C° 0 mm 1 m/s 734 mmHg 67%
    08:00 +7°C° 0 mm 2 m/s 734 mmHg 59%
    09:00 +9°C° 0 mm 2 m/s 734 mmHg 51%
    10:00 +11°C° 0 mm 3 m/s 734 mmHg 43%
    11:00 +12°C° 0 mm 3 m/s 733 mmHg 41%
    12:00 +13°C° 0 mm 3 m/s 733 mmHg 39%
    13:00 +13°C° 0 mm 3 m/s 732 mmHg 36%
    14:00 +13°C° 0 mm 3 m/s 731 mmHg 38%
    15:00 +13°C° 0 mm 3 m/s 731 mmHg 39%
    16:00 +13°C° 0 mm 3 m/s 730 mmHg 40%
    17:00 +11°C° 0 mm 3 m/s 730 mmHg 45%
    18:00 +9°C° 0 mm 3 m/s 729 mmHg 50%
    19:00 +7°C° 0 mm 2 m/s 729 mmHg 55%
    20:00 +7°C° 0 mm 2 m/s 728 mmHg 56%
    21:00 +6°C° 0 mm 2 m/s 728 mmHg 57%
    22:00 +6°C° 0 mm 2 m/s 728 mmHg 58%
    23:00 +6°C° 0 mm 2 m/s 727 mmHg 58%

    1 Outubro, Segunda-feira

    Tempo Temperatura Precipitação Vento Pressão Humidade
    00:00 +6°C° 0 mm 2 m/s 726 mmHg 59%
    01:00 +5°C° 0 mm 2 m/s 726 mmHg 59%
    02:00 +5°C° 0 mm 2 m/s 725 mmHg 62%
    03:00 +5°C° 0 mm 2 m/s 725 mmHg 64%
    04:00 +5°C° 0 mm 2 m/s 724 mmHg 67%
    05:00 +5°C° 0 mm 2 m/s 724 mmHg 69%
    06:00 +6°C° 0 mm 2 m/s 723 mmHg 71%
    07:00 +6°C° 0 mm 2 m/s 723 mmHg 74%
    08:00 +8°C° 0 mm 3 m/s 723 mmHg 67%
    09:00 +11°C° 0 mm 3 m/s 723 mmHg 61%
    10:00 +13°C° 0 mm 4 m/s 723 mmHg 55%
    11:00 +14°C° 0 mm 4 m/s 722 mmHg 52%
    12:00 +15°C° 0 mm 4 m/s 722 mmHg 48%
    13:00 +17°C° 0 mm 4 m/s 722 mmHg 45%
    14:00 +17°C° 0 mm 3 m/s 722 mmHg 46%
    15:00 +16°C° 0 mm 3 m/s 722 mmHg 48%
    16:00 +16°C° 0 mm 3 m/s 722 mmHg 49%
    17:00 +14°C° 0 mm 2 m/s 722 mmHg 53%
    18:00 +12°C° 0 mm 2 m/s 722 mmHg 57%
    19:00 +10°C° 0 mm 2 m/s 722 mmHg 61%
    20:00 +9°C° 0 mm 2 m/s 722 mmHg 62%
    21:00 +9°C° 0 mm 2 m/s 723 mmHg 62%
    22:00 +8°C° 0 mm 2 m/s 723 mmHg 62%
    23:00 +8°C° 0 mm 2 m/s 723 mmHg 64%
    Mostrar mais